Showing default

ORBCOMM FM 106, 40088

Orbit data source: Space-Track

ORBCOMM FM 106, 40088 is a payload satellite owned by Orbcomm (US) in LEO that was launched on Mon, 14 Jul 2014 UTC via an FALCON 9 launch vehicle from the Air Force Eastern Test Range (AFETR). Payload-class satellites include a variety of spacecraft equipped with specific instruments for various scientific and technological missions. These include communications satellites like Starlink; space stations such as the ISS; scientific satellites like the Hubble; Earth observation satellites from companies like Planet Labs, Umbra, and HawkEye 360; GPS; miniature CubeSats for education and research; and military/defense satellites.

Loading next visibility...
Identifier
40088, 2014-040C
Orbit
LEO
Country
Flag of USUS / ORB
Related business
Manufacturer
SNC Louisville
Mission
Non-operational Commercial Communications
Bus & Motor
SN-100A, Unknown motor
Mass
172 kg wet, 158 kg dry
Launch date (UTC)
2014-07-14 (12 years ago)
Launch vehicle
FALCON 9
Launch site
Air Force Eastern Test Range (AFETR)
Object type
Payload
Rocket body
Debris
Shape & HBR
Box + 1 Pan + 1 Ant, 5.3 m
Radar Cross Section
2.222 m², Medium (>0.1 m² and < 1m²)

Expand to show TLE details & history
Last TLE update: 9 hours ago

TLE from 9 hours ago
0 ORBCOMM FM 106
1 40088U 14040C   26263.06306562  .00000437  00000-0  10218-3 0  9995
2 40088  47.0593 148.0843 0016159  44.2004 316.0175 14.70642053651146
Epoch: 2026-09-20T01:30Z
TLE epoch observation values (Epoch: 2026-09-20T01:30:48.869Z)
Latitude
-0.00006°
Longitude
126.418°
Altitude
651.069 km
Speed
7.538 km/s
True Right ascension
09h 52m 20s
True Declination
0° 00' 00"
Sunlit
Object was in daylight at epoch
Visualization orbit readout
Latitude
Unknown
Longitude
Unknown
Altitude
Unknown
Speed
Unknown
Apparent Right ascension
Unknown
Apparent Declination
Unknown
Sunlit
N/A
Visualization observer readout
Local Sidereal Time
03:55:02
Azimuth
Unknown
Elevation
Unknown
Doppler factor
Unknown
Orbital elements
Apogee altitude
671.624 km
Perigee altitude
648.878 km
Semi-major axis
7,038.388 km
Eccentricity
0.00162
Inclination
47.0593°
RAAN
148.0843°
Arg. of periapsis
44.2004°
True anomaly
315.88872°
Mean anomaly
316.0175°
Eccentric anomaly
315.95313°
Mean motion
3.67564 °/min
Orbital period
97.94 mins
BSTAR
0.00010218
Loading maneuver chart data...
Computing Atmospheric mass density...
Loading historical data...
Loading historical data...
Loading historical data...
Loading historical data...
Loading historical data...
Loading historical data...
Loading historical data...

Documentation

Showing up to 5 results
|